Regional Weather Roundup
Issued by NWS

Home | Current Version | Previous Version | Text Only | Print | Product List | Glossary Off
Versions: 1 2 3 4 5 6 7 8 9 10 11 12 13 14 15 16 17 18 19 20 21 22 23 24 25 26 27 28 29 30 31 32 33 34 35 36 37 38 39 40 41 42 43 44 45 46 47 48 49 50

000
ASUS42 KTBW 010310
RWRFL
FLORIDA REGIONAL WEATHER ROUNDUP
NATIONAL WEATHER SERVICE TAMPA BAY RUSKIN FL
1100 PM EDT THU JUL 31 2014

NOTE: "FAIR" INDICATES FEW OR NO CLOUDS BELOW 12,000 FEET WITH NO
SIGNIFICANT WEATHER AND/OR OBSTRUCTIONS TO VISIBILITY.


FLZ001>010-012>015-112-114-115-010400-
PANHANDLE FLORIDA

CITY           SKY/WX    TMP DP  RH WIND       PRES   REMARKS
PENSACOLA      PTCLDY    75  65  70 CALM      29.99S
PENSACOLA NAS  MOCLDY    77  64  64 W5        29.99R
MILTON NAS     PTCLDY    72  66  81 CALM      30.00R
CRESTVIEW      PTCLDY    71  67  87 CALM      30.02R
DUKE FIELD     MOCLDY    77  68  73 SW3       30.00R
MARY ESTHER    PTCLDY    80  62  54 CALM      29.99R
TRI COUNTY     HVY RAIN  71  69  93 CALM      30.00R
PANAMA CITY    FAIR      74  65  73 CALM      29.99R
TYNDALL AFB    PTCLDY    74  67  79 CALM      30.00
APALACHICOLA   CLEAR     70  65  84 NW5       29.99R

STATION/POSITION SKY/WX   TEMP    WIND        PRES    WAVE   SWELL
                          AIR SEA DIR/SP/G            HT/PER HT/PER
                          (F)     (DEG/KT/KT) (MB)    (FT/S) (FT/S)
30.1N   87.6W              82 84  280/ 10/ 10 1015.8R   0
29.2N   88.2W              82 85   20/  2/  4 1016.2R
28.8N   86.0W              82 86   20/  4/  6 1016.1R   1
PANAMA CITY BEAC           80 81  310/  7/  8 1015.6R
CAPE SAN BLAS    NOT AVBL
TOWER C                    81     290/  6/  7 1015.7R
28.5N   84.5W              83 86   CALM  /  2 1015.7R   1/ 6   2/ 6

$$
FLZ011-016>038-118-127-128-134-139-239-010400-
NORTH FLORIDA

CITY           SKY/WX    TMP DP  RH WIND       PRES   REMARKS
MARIANNA       PTCLDY    76  71  85 CALM      29.99R
TALLAHASSEE    PTCLDY    76  66  71 CALM      29.99R
PERRY          CLEAR     72  68  88 CALM      30.00R
CROSS CITY       N/A     75  67  76 CALM      29.98R
GAINESVILLE    CLEAR     77  74  90 VRB5      29.99R
MAYPORT NAS    PTCLDY    84  74  71 SE8       30.00R
JACKSONVILLE   MOCLDY    80  75  84 NE6       29.99R
JAX NAS        MOCLDY    86  75  69 E7        30.00R HX  95
JAX CRAIG      CLOUDY    82  75  79 E5        30.00R
JAX CECIL      PTCLDY    79  75  89 CALM      30.00R
FERNANDINA BEA MOCLDY    84  72  65 SE5       29.99S
ST AUGUSTINE   MOCLDY    82  76  81 SE8       30.00R

STATION/POSITION SKY/WX   TEMP    WIND        PRES    WAVE   SWELL
                          AIR SEA DIR/SP/G            HT/PER HT/PER
                          (F)     (DEG/KT/KT) (MB)    (FT/S) (FT/S)
SHELL POINT                82     270/  6/  8   N/A
KEATON BEACH               83     280/  7/  9 1015.4S
CEDAR KEY                  84     310/  5/  7 1015.5R
FERNANDINA                 84 87  150/  4/  5 1015.4S
30.7N   81.3W                 86                N/A     3/ 3
MAYPORT                    84 86  120/  5/  8   N/A
31.4N   80.9W              85 85  140/ 12/ 14 1016.0R   3/ 5   2/ 7
ST AUGUSTINE               83     140/ 10/ 11 1016.2R

$$
FLZ040-043>046-052-053-057-058-063-144-010400-
INTERIOR CENTRAL FLORIDA

CITY           SKY/WX    TMP DP  RH WIND       PRES   REMARKS
OCALA          CLEAR     77  63  61 W7        29.99S
LEESBURG       CLEAR     81  70  69 NW3       29.99S
SANFORD        PTCLDY    80  76  87 E9        29.99R
ORLANDO EXEC   MOCLDY    84  77  79 S9        29.98S
ORLANDO INTL   PTCLDY    82  74  76 S8        29.99R
WINTER HAVEN   CLEAR     81  68  64 NW6       30.01R
LAKELAND       CLEAR     79  68  69 NW3       30.00S
BARTOW         FAIR      81  70  69 NW5       30.00S
OKEECHOBEE       N/A     79  75  89 MISG      30.01R

$$
FLZ041-047-054-059-064-141-147-010400-
EAST CENTRAL FLORIDA

CITY           SKY/WX    TMP DP  RH WIND       PRES   REMARKS
DAYTONA BEACH  MOCLDY    80  74  81 SE8       29.99S
DELAND         PTCLDY    77  73  88 E8        30.00S
MELBOURNE      PTCLDY    82  74  76 SE6       29.99R
VERO BEACH     MOCLDY    77  73  87 SE8       30.00R
FT PIERCE      MOCLDY    78  73  84 SE6       30.00R
STUART         MOCLDY    77  73  88 S5        30.03R

STATION/POSITION SKY/WX   TEMP    WIND        PRES    WAVE   SWELL
                          AIR SEA DIR/SP/G            HT/PER HT/PER
                          (F)     (DEG/KT/KT) (MB)    (FT/S) (FT/S)
28.5N   80.2W              84 83  160/ 14/ 16 1015.8R
28.9N   78.5W              83 84  140/ 14/ 16 1017.1R   2/ 8   2/ 8
TRIDENT PIER               82 85  160/  6/ 10 1015.0R
28.4N   80.5W                 84                N/A     3/ 4
27.6N   80.2W                 82                N/A     1/ 3

$$
FLZ050-056-061-142-242-148-248-149-249-151-251-155-255-
160-260-010400-
WEST CENTRAL FLORIDA

CITY           SKY/WX    TMP DP  RH WIND       PRES   REMARKS
CRYSTAL RIVER  MOCLDY    77  68  73 CALM      29.98S
INVERNESS      FAIR      73  64  73 CALM      29.99R
BROOKSVILLE    CLEAR     75  70  84 CALM      30.00R
ZEPHYRHILLS    FAIR      73  70  88 CALM      30.01R
CLEARWATER     CLEAR     81  68  64 N3        29.99R
TAMPA INTL     PTCLDY    82  68  62 CALM      30.00R
TAMPA EXEC     CLEAR     75  72  88 CALM      30.00R
ST PETERSBURG  CLEAR     83  68  60 N5        29.98R
SARASOTA       CLEAR     82  68  62 N3        29.98R
VENICE         FAIR      81  70  69 NE5       30.00R

STATION/POSITION SKY/WX   TEMP    WIND        PRES    WAVE   SWELL
                          AIR SEA DIR/SP/G            HT/PER HT/PER
                          (F)     (DEG/KT/KT) (MB)    (FT/S) (FT/S)
CEDAR KEY                  84     310/  5/  7 1015.5R
28.5N   84.5W              83 86   CALM  /  2 1015.7R   1/ 6   2/ 6
27.3N   84.3W                 87                N/A     1/ 5
CLEARWATER BEACH           84 89  340/  7/  8 1015.1R
MIDDLE TAMPA BAY           84     360/  6/  8 1015.8R
VENICE                     83 89   20/  5/  6 1015.4R

$$
FLZ066-069-070-075>078-162-262-165-265-010400-
SOUTHWEST FLORIDA AND KEYS

CITY           SKY/WX    TMP DP  RH WIND       PRES   REMARKS
PUNTA GORDA    CLOUDY    82  70  66 CALM      30.01R
FT MYERS       CLOUDY    81  76  84 S3        30.00R
SOUTHWEST INTL CLOUDY    79  75  87 SW5       30.00R
NAPLES         CLOUDY    81  75  82 SE3       30.00R
MARCO ISLAND   MOCLDY    79  75  89 CALM      30.00S
MARATHON       CLOUDY    85  74  69 CALM      30.00R
KEY WEST NAS   PTCLDY    84  75  74 NE3       29.99S
KEY WEST INTL  PTCLDY    85  75  72 E3        30.00R

STATION/POSITION SKY/WX   TEMP    WIND        PRES    WAVE   SWELL
                          AIR SEA DIR/SP/G            HT/PER HT/PER
                          (F)     (DEG/KT/KT) (MB)    (FT/S) (FT/S)
VENICE                     83 89   20/  5/  6 1015.4R
NAPLES                     81 93  120/  5/  7 1016.4R
DRY TORTUGAS               85     100/  3/  3 1015.6R
NW FL BAY                  85     200/  4/  6 1015.8R
SAND KEY                   85      90/  6/  7 1015.6R
SOMBRERO KEY               85     130/  4/  5 1016.8R
LONG KEY                   84 91   60/  6/  8 1016.5R
MOLASSES REEF              83 87   50/  8/  9 1016.4R

$$
FLZ067-068-071>074-168-172>174-010400-
SOUTHEAST FLORIDA

CITY           SKY/WX    TMP DP  RH WIND       PRES   REMARKS
W PALM BEACH   MOCLDY    79  75  87 S3        30.01R
FT LAUDER-EXEC MOCLDY    78  77  96 S3        30.02R
FT LAUDERDALE  MOCLDY    80  75  84 S5        30.02R
POMPANO BEACH  MOCLDY   N/A N/A N/A MISG      30.02R
PEMBROKE PINES MOCLDY    78  75  90 E3        30.03R
OPA LOCKA      MOCLDY    77  74  90 S3        30.02R
MIAMI          PTCLDY    78  75  90 CALM      30.02R
WEST KENDALL   MOCLDY    78  74  87 CALM      30.02R
HOMESTEAD      PTCLDY    77  75  92 NE5       30.02R

STATION/POSITION SKY/WX   TEMP    WIND        PRES    WAVE   SWELL
                          AIR SEA DIR/SP/G            HT/PER HT/PER
                          (F)     (DEG/KT/KT) (MB)    (FT/S) (FT/S)
PORT EVERGLADES            80     160/  2/  4 1016.5
VIRGINIA KEY               81 88   10/  2/  2   N/A
LAKE WORTH                 82 83  160/  7/  8 1016.1R
FOWEY ROCKS                82 86  330/  5/  6 1017.0R
SETTLEMENT POINT           83     130/  6/  7 1017.7R

$$



USA.gov is the U.S. government's official web portal to all federal, state and local government web resources and services.